This is the latest recevied weather packets stored in our database for station/object KC5DAQ-2. If no packets are shown the sender has not sent any weather packets the latest 10 day(s).
| Time | Temp. | Humidity | Pressure | Rain* | Wind** | Luminosity | Snow |
|---|---|---|---|---|---|---|---|
| 1777566067 | 22.22° C | 100% | 1003.3 hPa | 0 mm | - | 160 W/m² | - |
| 1777566007 | 22.22° C | 100% | 1003.3 hPa | 0 mm | - | 160 W/m² | - |
| 1777565946 | 22.22° C | 100% | 1003.4 hPa | 0 mm | - | 160 W/m² | - |
| 1777565887 | 22.22° C | 100% | 1003.3 hPa | 0 mm | - | 153 W/m² | - |
| 1777565826 | 22.22° C | 100% | 1003.3 hPa | 0 mm | - | 153 W/m² | - |
| 1777565766 | 22.22° C | 100% | 1003.3 hPa | 0 mm | - | 153 W/m² | - |
| 1777565705 | 21.67° C | 100% | 1003.2 hPa | 0 mm | - | 153 W/m² | - |
| 1777565646 | 21.67° C | 100% | 1003.3 hPa | 0 mm | - | 153 W/m² | - |
| 1777565586 | 21.67° C | 100% | 1003.2 hPa | 0 mm | - | 157 W/m² | - |
| 1777565527 | 21.67° C | 100% | 1003.3 hPa | 0 mm | - | 157 W/m² | - |
| 1777565465 | 21.67° C | 100% | 1003.2 hPa | 0 mm | - | 158 W/m² | - |
| 1777565405 | 21.67° C | 100% | 1003.3 hPa | 0 mm | - | 158 W/m² | - |
| 1777565346 | 21.67° C | 100% | 1003.3 hPa | 0 mm | - | 165 W/m² | - |
| 1777565288 | 21.67° C | 100% | 1003.2 hPa | 0 mm | - | 165 W/m² | - |
| 1777565225 | 21.67° C | 100% | 1003.2 hPa | 0 mm | - | 169 W/m² | - |
| 1777565167 | 21.67° C | 100% | 1003.2 hPa | 0 mm | - | 111 W/m² | - |
| 1777565107 | 21.67° C | 100% | 1003.2 hPa | 0 mm | - | 111 W/m² | - |
| 1777565045 | 21.67° C | 100% | 1003.2 hPa | 0 mm | - | 111 W/m² | - |
| 1777564985 | 21.67° C | 100% | 1003.3 hPa | 0 mm | - | 111 W/m² | - |
| 1777564925 | 21.67° C | 100% | 1003.5 hPa | 0 mm | - | 111 W/m² | - |
| 1777564866 | 21.67° C | 100% | 1003.6 hPa | 0 mm | - | 111 W/m² | - |
| 1777564805 | 21.67° C | 100% | 1003.6 hPa | 0 mm | - | 109 W/m² | - |
| 1777564745 | 21.67° C | 100% | 1003.6 hPa | 0 mm | - | 111 W/m² | - |
| 1777564685 | 21.67° C | 100% | 1003.5 hPa | 0 mm | - | 114 W/m² | - |
| 1777564627 | 21.67° C | 100% | 1003.5 hPa | 0 mm | - | 120 W/m² | - |
* Rain latest hour (hover to see other rain measurements)
** Current wind speed in m/s (hover to see current wind gust speed)